Weather Roundup
Issued by NWS Corpus Christi, TX

Home | Current Version | Previous Version | Text Only | Print | Product List | Glossary On
Versions: 1 2 3 4 5 6 7 8 9 10 11 12 13 14 15 16 17 18 19 20 21 22 23 24 25 26 27 28 29 30 31 32 33 34 35 36 37 38 39 40 41 42 43 44 45 46 47 48 49 50
000
ASUS44 KCRP 200110
HRRCRP

SOUTH TEXAS REGIONAL WEATHER ROUNDUP
NATIONAL WEATHER SERVICE CORPUS CHRISTI TX
800 PM CDT THU OCT 19 2017


TXZ229>244-200200-
...CORPUS CHRISTI AREA OBSERVATIONS...

CITY           SKY/WX    TMP DP  RH WIND       PRES   REMARKS
CORPUS CHRISTI CLOUDY    76  70  82 E15G23    30.02S
NAS CORPUS CHR CLOUDY    77  72  84 E14       30.01S
ROCKPORT       CLOUDY    73  69  87 NE10      30.03S
KINGSVILLE ARP MOCLDY    78  69  73 NE6       30.02S
KINGSVILLE NAS CLOUDY    78  72  81 E14       30.02R
ALICE          CLOUDY    76  64  66 E14       30.01F
$$

...VICTORIA AREA OBSERVATIONS...

CITY           SKY/WX    TMP DP  RH WIND       PRES   REMARKS
PORT LAVACA    LGT RAIN  72  69  89 E8        30.05F
VICTORIA       CLOUDY    72  66  81 E8        30.05F
BEEVILLE       CLOUDY    76  60  56 E7        30.04S
PLEASANTON     CLEAR     76  60  58 SE7       30.04R
SAN ANTONIO    PTCLDY    75  59  57 E10       30.05R
$$

...LAREDO AREA OBSERVATIONS...

CITY           SKY/WX    TMP DP  RH WIND       PRES   REMARKS
LAREDO         CLEAR     79  66  64 E14       30.00R
COTULLA        PTCLDY    78  64  61 SE9       30.01R
DEL RIO        CLEAR     75  61  61 E9        29.99R
MCALLEN        CLEAR     82  68  62 E10       29.99R
HEBBRONVILLE   MOCLDY    76  66  69 SE9       30.03R
$$

...OTHER TEXAS OBSERVATIONS...

CITY           SKY/WX    TMP DP  RH WIND       PRES   REMARKS
BROWNSVILLE    CLEAR     77  72  84 E6        30.00S
HOUSTON        MOCLDY    72  60  66 SE7       30.08S
COL. STATION   CLOUDY    78  61  55 SE12      30.08R
AUSTIN         MOCLDY    73  61  65 SE5       30.05S
WACO           PTCLDY    73  56  54 SE8       30.06S
FORT WORTH     CLOUDY    75  53  46 SE10      30.06R
WICHITA FALLS  PTCLDY    69  48  47 SE12      30.04R
LUBBOCK        MOCLDY    66  51  58 SE8       30.04R
EL PASO        MOCLDY    80  41  24 S6        29.94R
$$

...MARINE OBSERVATIONS...

STATION/POSITION TIME  SKY/WX   TEMP    WIND        PRES    VSBY  WAVE   SWELL
                                AIR SEA DIR/SP/G                  HT/PER HT/PER
                 (UTC)          (F)     (DEG/KT/KT) (MB)    (MI)  (FT/S) (FT/S)
PORT ARANSAS     NOT AVBL
BUOY 90 E PORT A 2350            80 82   40/ 19/ 23 1015.5          5/ 6
BUOY 200 E PT IS 2350            81 84  100/ 16/ 19 1015.3          5/ 8   2/ 8
BUOY 15 E GALVES 2350            77 80   60/ 16/ 19 1017.9          3/ 4   2/ 8
$$




USA.gov is the U.S. government's official web portal to all federal, state and local government web resources and services.